Location: Bushey
(51.6333°N, 0.3667°W)
Time: 18:18:57
(UTC+00:00)

Cosmos 2333 Rocket - Pass Details

Date: 03 March 2021
Orbit: 837 x 864 km, 70.8° (Epoch: 16 April)

Event Time Altitude Azimuth Distance (km) Brightness Sun altitude
Rises 22:16:55 0° 257° (WSW) 3,408 5.6 -38.8°
Reaches altitude 10° 22:19:52 10° 272° (W) 2,480 5.0 -39.1°
Maximum altitude 22:24:22 23° 324° (NW) 1,734 4.3 -39.5°
Drops below altitude 10° 22:28:54 10° 17° (NNE) 2,503 5.0 -39.9°
Sets 22:31:55 0° 31° (NNE) 3,447 5.6 -40.2°
